COSMOS 2454 [-]

Last updated on July 6, 2021, 3:40 p.m. UTC

1 35635U 09039A   21187.04745489  .00000038  00000-0  17753-4 0  9991
2 35635  82.9570 317.0981 0020381  32.5581 327.6831 13.89663792606581
UTC
Height (km)
Latitude
Longitude
Inclination
Orbital Period
UTC large
Height (km)
Speed (km/s)
/
Latitude / Longitude
Inclination (degrees)
Orbital Period (minutes)
Azimuth
Elevation
Range (km)
Doppler Factor
iOS Compass Heading
iOS Angle